TimeCDT,TemperatureF,Dew PointF,Humidity,Sea Level PressureIn,VisibilityMPH,Wind Direction,Wind SpeedMPH,Gust SpeedMPH,PrecipitationIn,Events,Conditions,WindDirDegrees,DateUTC
12:13 AM,57.2,53.6,88,29.84,10.0,NNW,4.6,-,N/A,,Mostly Cloudy,340,2013-06-29 05:13:00
12:33 AM,57.2,53.6,88,29.84,10.0,NNW,4.6,-,N/A,,Scattered Clouds,340,2013-06-29 05:33:00
12:54 AM,57.2,53.6,88,29.84,10.0,NNW,4.6,-,N/A,,Scattered Clouds,340,2013-06-29 05:54:00
1:13 AM,57.2,53.6,88,29.84,10.0,NNW,4.6,-,N/A,,Scattered Clouds,330,2013-06-29 06:13:00
1:34 AM,57.2,53.6,88,29.83,10.0,NNW,4.6,-,N/A,,Scattered Clouds,330,2013-06-29 06:34:00
1:53 AM,57.2,53.6,88,29.83,10.0,NNW,5.8,-,N/A,,Clear,330,2013-06-29 06:53:00
2:14 AM,57.2,53.6,88,29.84,10.0,NNW,5.8,-,N/A,,Clear,330,2013-06-29 07:14:00
2:33 AM,57.2,53.6,88,29.84,10.0,NNW,6.9,-,N/A,,Scattered Clouds,340,2013-06-29 07:33:00
2:53 AM,57.2,53.6,88,29.84,10.0,NNW,4.6,-,N/A,,Scattered Clouds,340,2013-06-29 07:53:00
3:13 AM,55.4,53.6,94,29.84,10.0,NNW,4.6,-,N/A,,Scattered Clouds,340,2013-06-29 08:13:00
3:33 AM,55.4,51.8,88,29.84,10.0,NNW,5.8,-,N/A,,Scattered Clouds,340,2013-06-29 08:33:00
3:54 AM,55.4,51.8,88,29.85,10.0,North,4.6,-,N/A,,Scattered Clouds,350,2013-06-29 08:54:00
4:14 AM,55.4,51.8,88,29.85,10.0,North,6.9,-,N/A,,Clear,360,2013-06-29 09:14:00
4:33 AM,55.4,51.8,88,29.85,10.0,North,6.9,-,N/A,,Clear,360,2013-06-29 09:33:00
4:53 AM,55.4,51.8,88,29.86,10.0,North,6.9,-,N/A,,Clear,360,2013-06-29 09:53:00
5:14 AM,55.4,50.0,82,29.86,10.0,North,8.1,-,N/A,,Clear,360,2013-06-29 10:14:00
5:33 AM,55.4,50.0,82,29.87,10.0,North,6.9,-,N/A,,Clear,360,2013-06-29 10:33:00
5:53 AM,55.4,50.0,82,29.87,10.0,North,6.9,-,N/A,,Clear,360,2013-06-29 10:53:00
6:14 AM,55.4,48.2,77,29.88,10.0,North,9.2,-,N/A,,Clear,350,2013-06-29 11:14:00
6:34 AM,55.4,48.2,77,29.88,10.0,North,8.1,-,N/A,,Clear,360,2013-06-29 11:34:00
6:54 AM,55.4,48.2,77,29.89,10.0,North,6.9,-,N/A,,Clear,360,2013-06-29 11:54:00
7:14 AM,57.2,50.0,77,29.90,10.0,North,9.2,-,N/A,,Clear,10,2013-06-29 12:14:00
7:34 AM,59.0,50.0,72,29.90,10.0,North,8.1,-,N/A,,Clear,360,2013-06-29 12:34:00
7:53 AM,59.0,50.0,72,29.90,10.0,North,8.1,-,N/A,,Clear,360,2013-06-29 12:53:00
8:13 AM,60.8,50.0,68,29.91,10.0,North,8.1,-,N/A,,Clear,360,2013-06-29 13:13:00
8:34 AM,60.8,48.2,63,29.92,10.0,North,9.2,-,N/A,,Clear,360,2013-06-29 13:34:00
8:53 AM,60.8,50.0,68,29.92,10.0,North,8.1,-,N/A,,Clear,350,2013-06-29 13:53:00
9:13 AM,62.6,50.0,63,29.92,10.0,North,9.2,-,N/A,,Clear,350,2013-06-29 14:13:00
9:34 AM,62.6,50.0,63,29.93,10.0,NNW,10.4,-,N/A,,Clear,340,2013-06-29 14:34:00
9:53 AM,62.6,48.2,59,29.93,10.0,North,10.4,-,N/A,,Clear,350,2013-06-29 14:53:00
10:13 AM,62.6,48.2,59,29.93,10.0,North,11.5,17.3,N/A,,Clear,360,2013-06-29 15:13:00
10:34 AM,62.6,46.4,55,29.93,10.0,North,10.4,18.4,N/A,,Clear,360,2013-06-29 15:34:00
10:53 AM,64.4,48.2,56,29.94,10.0,North,9.2,-,N/A,,Clear,360,2013-06-29 15:53:00
11:14 AM,64.4,48.2,56,29.94,10.0,North,10.4,16.1,N/A,,Clear,10,2013-06-29 16:14:00
11:33 AM,66.2,46.4,49,29.94,10.0,NNE,12.7,23.0,N/A,,Clear,30,2013-06-29 16:33:00
11:54 AM,68.0,46.4,46,29.95,10.0,North,15.0,21.9,N/A,,Clear,10,2013-06-29 16:54:00
12:14 PM,69.8,48.2,46,29.95,10.0,North,9.2,-,N/A,,Scattered Clouds,360,2013-06-29 17:14:00
12:34 PM,68.0,48.2,49,29.96,10.0,NNE,10.4,18.4,N/A,,Clear,30,2013-06-29 17:34:00
12:53 PM,66.2,44.6,46,29.97,10.0,North,16.1,23.0,N/A,,Clear,360,2013-06-29 17:53:00
1:13 PM,66.2,44.6,46,29.98,10.0,NNE,13.8,21.9,N/A,,Clear,20,2013-06-29 18:13:00
1:33 PM,66.2,44.6,46,29.98,10.0,North,10.4,18.4,N/A,,Clear,10,2013-06-29 18:33:00
1:54 PM,68.0,44.6,43,29.98,10.0,North,11.5,17.3,N/A,,Clear,10,2013-06-29 18:54:00
2:13 PM,69.8,44.6,40,29.98,10.0,NNE,11.5,17.3,N/A,,Clear,30,2013-06-29 19:13:00
2:33 PM,69.8,42.8,38,29.98,10.0,NE,13.8,23.0,N/A,,Clear,50,2013-06-29 19:33:00
2:54 PM,69.8,41.0,35,29.99,10.0,NE,12.7,-,N/A,,Clear,40,2013-06-29 19:54:00
3:14 PM,69.8,42.8,38,29.99,10.0,NE,11.5,18.4,N/A,,Clear,40,2013-06-29 20:14:00
3:33 PM,68.0,42.8,40,29.99,10.0,North,9.2,21.9,N/A,,Clear,10,2013-06-29 20:33:00
3:53 PM,68.0,42.8,40,29.99,10.0,NNE,6.9,-,N/A,,Clear,20,2013-06-29 20:53:00
4:14 PM,69.8,42.8,38,29.99,10.0,NNE,11.5,-,N/A,,Clear,30,2013-06-29 21:14:00
4:33 PM,69.8,42.8,38,29.99,10.0,North,6.9,-,N/A,,Clear,350,2013-06-29 21:33:00
4:53 PM,69.8,41.0,35,29.99,10.0,NNW,11.5,-,N/A,,Clear,340,2013-06-29 21:53:00
5:14 PM,69.8,41.0,35,29.99,10.0,North,11.5,-,N/A,,Clear,360,2013-06-29 22:14:00
5:33 PM,68.0,39.2,35,29.99,10.0,North,9.2,16.1,N/A,,Clear,360,2013-06-29 22:33:00
5:53 PM,68.0,42.8,40,29.99,10.0,North,6.9,-,N/A,,Clear,10,2013-06-29 22:53:00
6:13 PM,68.0,42.8,40,29.99,10.0,North,8.1,-,N/A,,Clear,10,2013-06-29 23:13:00
6:33 PM,66.2,42.8,43,29.99,10.0,North,6.9,-,N/A,,Clear,360,2013-06-29 23:33:00
6:53 PM,66.2,42.8,43,30.00,10.0,North,10.4,-,N/A,,Clear,350,2013-06-29 23:53:00
7:14 PM,66.2,42.8,43,30.00,10.0,North,8.1,-,N/A,,Clear,350,2013-06-30 00:14:00
7:34 PM,64.4,42.8,45,30.00,10.0,NNW,4.6,-,N/A,,Clear,340,2013-06-30 00:34:00
7:54 PM,62.6,42.8,48,30.01,10.0,NNW,4.6,-,N/A,,Clear,340,2013-06-30 00:54:00
8:13 PM,60.8,44.6,55,30.01,10.0,Calm,Calm,-,N/A,,Clear,0,2013-06-30 01:13:00
8:33 PM,59.0,42.8,55,30.01,10.0,WNW,3.5,-,N/A,,Clear,300,2013-06-30 01:33:00
8:54 PM,57.2,44.6,63,30.01,10.0,NW,4.6,-,N/A,,Clear,310,2013-06-30 01:54:00
9:14 PM,55.4,44.6,67,30.01,10.0,WNW,4.6,-,N/A,,Clear,300,2013-06-30 02:14:00
9:33 PM,53.6,44.6,72,30.02,10.0,WNW,4.6,-,N/A,,Clear,300,2013-06-30 02:33:00
9:54 PM,53.6,44.6,72,30.02,10.0,WNW,4.6,-,N/A,,Clear,300,2013-06-30 02:54:00
10:14 PM,53.6,44.6,72,30.02,10.0,WNW,3.5,-,N/A,,Clear,300,2013-06-30 03:14:00
10:33 PM,51.8,44.6,76,30.01,10.0,WNW,4.6,-,N/A,,Clear,300,2013-06-30 03:33:00
10:53 PM,51.8,42.8,71,30.02,10.0,WNW,4.6,-,N/A,,Clear,300,2013-06-30 03:53:00
11:13 PM,53.6,42.8,67,30.02,10.0,WNW,4.6,-,N/A,,Clear,300,2013-06-30 04:13:00
11:34 PM,53.6,42.8,67,30.02,10.0,NW,5.8,-,N/A,,Clear,310,2013-06-30 04:34:00
11:54 PM,55.4,42.8,63,30.02,10.0,NW,4.6,-,N/A,,Clear,310,2013-06-30 04:54:00